Pasco, WA

3:53 PM PDT on August 22, 2017 (GMT -0700)
Tri-Cities

Weather History for KPSC - November, 2011

Change the Weather History Date:

Monday, November 7, 2011

  Actual Average Record
Temperature  
Mean Temperature 36 °F 44 °F  
Max Temperature 51 °F 55 °F 69 °F (2006)
Min Temperature 20 °F 34 °F 15 °F (2003)
Degree Days  
Heating Degree Days 29 21  
Month to date heating degree days 190 138  
Since 1 July heating degree days 583 656  
Cooling Degree Days 0 0  
Month to date cooling degree days 0 0  
Year to date cooling degree days 632 710  
Moisture  
Dew Point 27 °F    
Average Humidity 72    
Maximum Humidity 92    
Minimum Humidity 52    
Precipitation  
Precipitation 0.00 in 0.03 in 0.36 in (1980)
Month to date precipitation T 0.21  
Year to date precipitation 5.96 6.74  
Snow  
Snow 0.00 in - - ()
Snow Depth 0.00 in    
Sea Level Pressure  
Sea Level Pressure 30.24 in    
Wind  
Wind Speed 1 mph (NW)    
Max Wind Speed 8 mph    
Max Gust Speed 10 mph    
Visibility 10 miles    
Events      
T = Trace of Precipitation, MM = Missing Value Source: NWS Daily Summary

Daily Weather History Graph

Daily Weather History Graph

Search for Another Location

Airport or City:

Trip Planner

Search our weather history database for the weather conditions in past years. The results will help you decide how hot, cold, wet, or windy it might be!

Date:

Astronomy

Nov. 07, 2011 Rise Set
Actual Time 6:45 AM PST 4:33 PM PST
Civil Twilight 6:14 AM PST 5:05 PM PST
Nautical Twilight 5:38 AM PST 5:41 PM PST
Astronomical Twilight 5:03 AM PST 6:16 PM PST
Moon 2:52 PM PST (11/7) 3:46 AM PST (11/7)
Length of Visible Light 10h 51m
Length of Day
9h 47m
Waxing Gibbous, 92% of the Moon is Illuminated
Nov 7
Waxing Gibbous
Nov 10
Full
Nov 18
Last Quarter
Nov 24
New
Dec 2
First Quarter

Hourly Weather History & Observations

Time (PST) Temp. Windchill Dew Point Humidity Pressure Visibility Wind Dir Wind Speed Gust Speed Precip Events Conditions
12:53 AM 21.9 °F - 19.0 °F 89% 30.22 in 10.0 mi Calm Calm - N/A   Clear
1:53 AM 21.9 °F - 19.0 °F 89% 30.22 in 10.0 mi Calm Calm - N/A   Clear
2:53 AM 23.0 °F - 19.9 °F 88% 30.22 in 10.0 mi Calm Calm - N/A   Clear
3:53 AM 21.9 °F - 19.0 °F 89% 30.21 in 10.0 mi Calm Calm - N/A   Partly Cloudy
4:53 AM 21.0 °F 14.6 °F 19.0 °F 92% 30.22 in 10.0 mi NW 4.6 mph - N/A   Clear
5:53 AM 21.0 °F - 18.0 °F 88% 30.24 in 10.0 mi Calm Calm - N/A   Clear
6:53 AM 21.0 °F 16.2 °F 18.0 °F 88% 30.25 in 10.0 mi NNW 3.5 mph - N/A   Mostly Cloudy
7:53 AM 25.0 °F 20.7 °F 21.9 °F 88% 30.27 in 9.0 mi NNW 3.5 mph - N/A   Overcast
8:53 AM 30.0 °F - 26.1 °F 85% 30.27 in 10.0 mi Calm Calm - N/A   Mostly Cloudy
9:53 AM 37.0 °F - 28.9 °F 73% 30.26 in 10.0 mi Calm Calm - N/A   Clear
10:53 AM 41.0 °F 39.0 °F 28.9 °F 62% 30.25 in 10.0 mi North 3.5 mph - N/A   Clear
11:53 AM 44.1 °F - 30.0 °F 58% 30.24 in 10.0 mi Calm Calm - N/A   Clear
1:53 PM 48.9 °F - 34.0 °F 56% 30.22 in 10.0 mi Calm Calm - N/A   Clear
2:53 PM 50.0 °F - 34.0 °F 54% 30.22 in 10.0 mi West 4.6 mph - N/A   Clear
3:53 PM 50.0 °F - 34.0 °F 54% 30.22 in 10.0 mi Calm Calm - N/A   Clear
4:53 PM 46.9 °F - 34.0 °F 61% 30.22 in 10.0 mi Calm Calm - N/A   Clear
5:53 PM 41.0 °F - 33.1 °F 73% 30.23 in 10.0 mi Calm Calm - N/A   Clear
6:53 PM 39.0 °F - 33.1 °F 79% 30.24 in 10.0 mi Calm Calm - N/A   Overcast
7:53 PM 37.9 °F - 32.0 °F 79% 30.24 in 10.0 mi Calm Calm - N/A   Mostly Cloudy
8:53 PM 37.9 °F - 33.1 °F 83% 30.25 in 10.0 mi Calm Calm - N/A   Overcast
9:53 PM 36.0 °F - 30.0 °F 79% 30.25 in 10.0 mi Calm Calm - N/A   Partly Cloudy
10:53 PM 30.9 °F 27.5 °F 28.0 °F 89% 30.25 in 10.0 mi NW 3.5 mph - N/A   Clear
11:53 PM 37.9 °F 35.5 °F 30.9 °F 76% 30.26 in 10.0 mi South 3.5 mph - N/A   Clear